Regional Weather Roundup
Issued by NWS

Home | Current Version | Previous Version | Graphics & Text | Print | Product List | Glossary On
Versions: 1 2 3 4 5 6 7 8 9 10 11 12 13 14 15 16 17 18 19 20 21 22 23 24 25 26 27 28 29 30 31 32 33 34 35 36 37 38 39 40 41 42 43 44 45 46 47 48 49 50
000
ASUS45 KBOU 100810
RWRCO

WEATHER ROUNDUP FOR COLORADO
NATIONAL WEATHER SERVICE DENVER/BOULDER CO
100 AM MST SUN DEC 10 2017

NOTE: "FAIR" INDICATES FEW OR NO CLOUDS BELOW 12000 FEET WITH NO
SIGNIFICANT WEATHER AND/OR OBSTRUCTIONS TO VISIBILITY.

COZ001>005-013-030-031-100900-
...NORTHWEST COLORADO...

CITY           SKY/WX    TMP DP  RH WIND       PRES   REMARKS
CRAIG          FAIR       7   3  84 CALM      30.59R
HAYDEN         FAIR      18   9  68 SE13      30.59S WCI   5
MEEKER         FAIR      20   5  52 CALM      30.58R
RABBIT EARS PA FAIR      21   9  58 W12G18    30.57S WCI   9
STEAMBOAT SPGS FAIR      17  12  83 CALM      30.59R
WALDEN         FAIR       5  -2  72 SE7       30.57S WCI  -7
$$

COZ006>008-011-100900-
...WEST CENTRAL VALLEYS...

CITY           SKY/WX    TMP DP  RH WIND       PRES   REMARKS
GRAND JUNCTION FAIR      25   8  48 E9        30.56S WCI  15
MONTROSE       FAIR      17   1  49 S7        30.60R WCI   8
EAGLE          FAIR      10   6  84 E7        30.67R WCI  -1
RIFLE          FAIR      18   6  59 SE5       30.61R WCI  11
DELTA          FAIR      22   2  42 CALM      30.59S
NUCLA          FAIR      23  -6  28 SE6       30.59S WCI  16
$$

COZ017>023-064>068-100900-
...SOUTHWEST COLORADO...

CITY           SKY/WX    TMP DP  RH WIND       PRES   REMARKS
DURANGO        FAIR      17   2  51 NE8       30.51S WCI   7
CORTEZ         FAIR      11  -3  53 NE9       30.51F WCI  -2
PAGOSA SPRINGS FAIR      16   1  51 CALM      30.51F
TELLURIDE      FAIR      26 -11  19 SE7       30.59S WCI  18
WOLF CREEK PAS FAIR      25 -22  12 NW5       30.64F WCI  19
$$

COZ009-010-012-014-032>034-037-058>063-100900-
...CENTRAL COLORADO...

CITY           SKY/WX    TMP DP  RH WIND       PRES   REMARKS
ASPEN          FAIR      19   2  47 S6        30.57S WCI  11
BUENA VISTA    FAIR      29  -2  27 NW14      30.52F WCI  18
COPPER MTN     NOT AVBL
BERTHOUD PASS  FAIR      14   3  62 NW21      30.57R WCI  -4
COTTONWOOD PAS FAIR      36 -17  10 W10       30.53F
GUNNISON       FAIR       8  -2  63 CALM      30.61S
KREMMLING      CLOUDY     3   0  85 CALM      30.66S
LEADVILLE      FAIR      14  -6  40 NE10      30.55F WCI   1
MONARCH PASS   FAIR      27 -22  11 NW9       30.69S WCI  17
SALIDA         FAIR      26  -3  28 SW8       30.61R WCI  18
SUNLIGHT       FAIR      25  -9  22 NW6       30.64S WCI  18
WILKERSON PASS FAIR      27 -22  11 N12G20    30.57S WCI  16
$$

COZ069>075-100900-
...SAN LUIS VALLEY/SANGRE DE CRISTO MOUNTAINS...

CITY           SKY/WX    TMP DP  RH WIND       PRES   REMARKS
ALAMOSA        FAIR       4  -3  73 S5        30.53R WCI  -5
DEL NORTE      FAIR      25  -9  22 W17       30.53S WCI  11
LA VETA PASS   FAIR      27  -4  26 SW16        N/A  WCI  14
SAGUACHE       FAIR      27  -6  24 NW12      30.53R WCI  16
$$

COZ035-036-038>040-100900-
...NORTHERN COLORADO FRONT RANGE...

CITY           SKY/WX    TMP DP  RH WIND       PRES   REMARKS
DENVER INTL AP FAIR      35  -2  20 SW15      30.40S WCI  25
DMNS CITY PARK NOT AVBL
AURORA         CLEAR     32  -1  23 S9        30.41S WCI  25
FRONT RANGE AP FAIR      40  -2  16 S8        30.41R
ERIE MUNI ARPT FAIR      20  10  63 S3        30.45S
BOULDER MUN AP FAIR      43   0  16 SW5       30.39S
CENTENNIAL     FAIR      31   0  26 S3        30.42S
BROOMFIELD     FAIR      34   0  23 W6        30.40F WCI  29
FORT COLLINS   FAIR      35   7  31 CALM      30.39S
LONGMONT       FAIR      30   8  38 W6        30.42R WCI  24
$$

COZ041-046-047-076>085-087-088-100900-
...PIKES PEAK/PALMER DIVIDE AND SOUTHERN FOOTHILLS...

CITY           SKY/WX    TMP DP  RH WIND       PRES   REMARKS
COLO. SPRINGS  FAIR      29  -1  27 N7        30.44F WCI  22
A. F. ACADEMY  FAIR      22  -3  32 N13       30.44F WCI  10
SCHRIEVER AFB  FAIR      37  -3  18 NW6       30.44S
CHEYENNE MTN   FAIR      39  -9  12 NW5       30.39F
ELLICOTT         N/A    N/A N/A N/A CALM      30.43R
FALCON         FAIR      30  -7  20 N7        30.45F WCI  23
FORT CARSON    FAIR      29  -2  26 NW12      30.42S WCI  19
LIMON          FAIR      25   1  35 N6        30.41S WCI  18
MONUMENT HILL  FAIR      23   1  39 SW9       30.46S WCI  13
CANON CITY     FAIR      36   0  21 W8        30.43S
WALSENBURG     FAIR      32   0  25 SW13      30.45S WCI  22
TRINIDAD       FAIR      25   5  42 W13       30.45S WCI  14
$$

COZ042>045-048>051-090-091-100900-
...NORTHEAST COLORADO...

CITY           SKY/WX    TMP DP  RH WIND       PRES   REMARKS
GREELEY ARPT   FAIR      20   3  48 CALM      30.40S
AKRON          FAIR      30   3  31 W13       30.36S WCI  20
BURLINGTON     FAIR      32   6  33 W8        30.35S WCI  25
WRAY           FAIR      32   5  32 MISG      30.32S
YUMA           FAIR      30   5  34 W13       30.34S WCI  20
STERLING       FAIR      36   5  27 NW13      30.34S
HOLYOKE        FAIR      37   9  30 W15       30.30S
FORT MORGAN    FAIR      28   3  34 W10       30.38S WCI  19
$$

COZ086-089-092>099-100900-
...SOUTHEAST COLORADO...

CITY           SKY/WX    TMP DP  RH WIND       PRES   REMARKS
PUEBLO         FAIR      22   2  42 W5        30.43R WCI  16
LA JUNTA       FAIR      28   3  34 W6        30.41S WCI  22
LAMAR          FAIR      27   4  37 SW8       30.38R WCI  19
SPRINGFIELD      N/A     25   4  40 W5        30.38F WCI  19
$$



USA.gov is the U.S. government's official web portal to all federal, state and local government web resources and services.